Location: Fort Wayne
(41.1310°N, 85.1290°W)
Time: 13:47:04
(UTC-04:00)

Daily predictions for brighter satellites

Satellite Brightness Start Highest point End
(mag) Time Altitude Azimuth Time Altitude Azimuth Time Altitude Azimuth
Cosmos 2344 3.8 20:12:39 10° SSW 20:20:20 90° SE 20:28:56 10° NE
Cosmos 1934 Rocket 3.9 20:17:06 10° S 20:23:12 77° E 20:29:15 10° N
Okean 3 Rocket 3.9 20:19:53 10° N 20:24:07 45° ENE 20:28:20 10° SSE
FENGYUN 3A 3.8 20:19:23 10° SSE 20:24:39 57° ENE 20:29:56 10° N
Cosmos 1805 3.7 20:23:52 10° SSE 20:27:31 40° E 20:31:12 10° NNE
Cosmos 1833 Rocket 3.4 20:22:59 10° N 20:28:10 36° ENE 20:33:17 10° SE
Cosmos 1812 Rocket 4.0 20:25:28 10° SSW 20:29:51 69° W 20:34:14 10° N
ALOS 2.3 20:25:57 10° SSE 20:30:35 66° ENE 20:35:14 10° N
Helios 1A 4.4 20:27:43 10° ESE 20:30:42 19° ENE 20:33:42 10° NNE
Abrixas 2.5 20:29:41 10° WNW 20:32:31 68° SSW 20:35:19 10° SE
RESURS DK-1 3.7 20:31:52 10° NW 20:35:48 43° WSW 20:39:43 10° S
Tiangong 1 3.6 20:34:45 10° WSW 20:36:22 14° SW 20:37:59 10° S
Cosmos 2278 Rocket 2.6 20:32:26 10° SSW 20:38:05 72° WNW 20:43:48 10° NNE
ATLAS 5 CENTAUR R/B 2.3 20:36:13 10° S 20:40:29 38° ESE 20:45:06 10° NE
Cosmos 1125 Rocket 3.5 20:37:13 10° S 20:42:18 60° ESE 20:47:27 10° NNE
SeaSat 1 2.5 20:38:20 10° SE 20:43:13 70° ENE 20:48:09 10° NNW
Cosmos 1733 4.4 20:41:05 10° SE 20:44:06 22° E 20:47:07 10° NE
Cosmos 1048 Rocket 4.1 20:40:07 10° N 20:45:07 52° ENE 20:50:06 10° SE
GPS 2-05 Rocket1 4.0 20:42:27 10° SW 20:45:35 29° S 20:48:14 13° ESE
Cosmos 1470 3.8 20:42:25 10° SE 20:45:41 25° E 20:48:57 10° NE
Cosmos 1766 Rocket 4.2 20:42:22 10° N 20:46:32 37° ENE 20:50:40 10° SE
Cosmos-2242 3.8 20:44:39 10° SSE 20:48:21 29° E 20:52:03 10° NNE
GP-B 3.7 20:47:57 10° SE 20:51:57 35° E 20:56:00 10° NNE
HJ-1C 3.7 20:50:57 10° S 20:54:21 71° W 20:57:46 10° NNW
Cosmos 2297 3.7 20:50:41 10° SSW 20:56:22 75° ESE 21:02:06 10° NNE
SJ-6B 4.0 20:53:44 10° S 20:57:17 43° W 21:00:53 10° NNW
BREEZE-M DEB (TANK) 3.1 20:55:00 10° WSW 20:57:45 84° NNW 21:05:04 10° ENE
USA 186 1.9 20:58:06 24° E 20:58:32 26° ENE 21:00:28 10° NNE
H-2A R/B 2.7 20:55:25 10° SSE 20:59:19 88° ENE 21:03:17 10° NNW
Cosmos 1340 Rocket 3.7 20:56:25 10° NNE 21:00:01 30° ENE 21:02:28 16° SE
Resurs 01 Rocket 1.6 20:57:04 10° SSE 21:01:29 88° ENE 21:05:56 10° NNW
CZ-4B DEB 4.0 21:01:12 20° E 21:02:02 22° ENE 21:04:32 10° NNE
Cosmos 2082 Rocket 2.2 21:02:50 10° NNW 21:08:34 83° ENE 21:14:13 10° SSE
ISS -4.0 21:07:09 10° SW 21:10:23 75° SE 21:12:44 17° ENE
Cosmos 1605 Rocket 4.5 21:04:36 10° SSW 21:10:50 67° W 21:17:12 10° N
Meteor 1-29 3.5 21:10:52 10° NNE 21:14:05 35° E 21:16:41 14° SSE
Cosmos 2100 Rocket 4.1 21:08:38 10° S 21:14:47 58° E 21:21:01 10° NNE
Cosmos 1743 Rocket 4.1 21:13:34 10° N 21:17:42 37° ENE 21:19:40 24° SE
Cosmos 1500 Rocket 4.5 21:14:57 10° NNE 21:18:38 27° ENE 21:19:25 25° E
SAR-Lupe-4 3.5 21:16:30 16° SSE 21:19:13 68° ENE 21:22:47 10° N
CZ-3B DEB 4.1 21:13:04 10° W 21:22:26 38° NW 21:27:04 10° NE
SL-14 R/B 4.3 21:19:32 10° NNE 21:22:48 25° ENE 21:22:48 25° ENE
COSMOS 2487 3.0 21:20:02 10° NNW 21:23:34 60° WSW 21:26:44 12° S
YAOGAN 6 4.3 21:24:20 19° ENE 21:24:20 19° ENE 21:26:32 10° NNE
Cosmos 1271 Rocket 2.7 21:20:51 10° S 21:24:50 77° E 21:28:53 10° NNE
Cosmos 2251 Rocket 4.1 21:21:42 10° N 21:26:41 38° ENE 21:28:42 28° ESE
H-2A R/B 4.5 21:23:03 10° SW 21:29:04 44° SSE 21:48:01 21° ESE
H-2A R/B 4.5 21:23:02 10° SW 21:29:04 44° SSE 21:47:59 21° ESE
H-2A R/B 4.5 21:23:02 10° SW 21:29:04 44° SSE 21:47:54 21° ESE
H-2A R/B 4.5 21:23:02 10° SW 21:29:04 44° SSE 21:48:00 21° ESE
H-2A R/B 4.5 21:23:03 10° SW 21:29:04 44° SSE 21:48:02 21° ESE
H-2A R/B 4.5 21:23:03 10° SW 21:29:04 44° SSE 21:48:00 21° ESE
H-2A R/B 4.5 21:23:03 10° SW 21:29:04 44° SSE 21:47:57 21° ESE
H-2A R/B 4.5 21:23:03 10° SW 21:29:05 44° SSE 21:48:01 21° ESE
H-2A R/B 4.5 21:23:02 10° SW 21:29:05 44° SSE 21:47:59 21° ESE
H-2A R/B 4.5 21:23:02 10° SW 21:29:05 44° SSE 21:47:57 21° ESE
H-2A R/B 4.5 21:23:03 10° SW 21:29:05 44° SSE 21:47:58 21° ESE
H-2A R/B 4.5 21:23:03 10° SW 21:29:05 44° SSE 21:47:59 21° ESE
Cosmos 1269 Rocket 4.5 21:24:01 10° NNW 21:29:14 62° WSW 21:34:26 10° S
Cosmos 1328 4.3 21:26:23 10° N 21:30:05 36° ENE 21:30:24 35° E
Cosmos 372 Rocket 4.3 21:25:18 10° SSW 21:30:23 67° WNW 21:35:32 10° NNE
Cosmos 1674 3.0 21:28:42 10° NNW 21:32:28 66° W 21:36:14 10° S
Cosmos 1953 3.8 21:28:44 10° SSW 21:32:34 40° WNW 21:36:25 10° N
Cosmos 158 Rocket 4.3 21:28:49 10° NNW 21:33:56 67° WSW 21:39:06 10° S
Lacrosse 5 4.0 21:31:40 10° W 21:35:44 23° NNW 21:39:47 10° NNE
USA 215 3.6 21:30:07 10° ENE 21:36:14 41° SE 21:42:19 10° SSW
Cosmos 1408 Rocket 4.1 21:33:01 10° NNW 21:37:27 62° W 21:41:50 10° S
SAR-Lupe-1 4.1 21:36:02 26° S 21:37:57 79° WSW 21:41:33 10° NNW
Cosmos 1802 Rocket 3.9 21:32:29 10° S 21:38:33 69° E 21:44:42 10° NNE
Cosmos 2151 3.7 21:38:29 10° N 21:42:00 34° ENE 21:42:00 34° ENE
SPOT 5 4.3 21:42:54 24° ENE 21:43:03 24° ENE 21:47:13 10° NNE
Cosmos 1939 Rocket 2.9 21:42:57 46° SE 21:43:59 64° ENE 21:48:07 10° N
Helios 1B rocket 2.6 21:39:54 10° N 21:44:02 74° WNW 21:48:07 10° SSW
TIMED 4.4 21:44:41 10° SSW 21:49:04 89° E 21:53:27 10° NNE
SJ-11-01 4.2 21:48:15 33° SSE 21:50:22 82° ENE 21:55:07 10° N
Cosmos 1842 Rocket 3.4 21:50:28 38° SSE 21:52:04 69° E 21:56:27 10° NNE
Lacrosse 5 rocket 1.2 21:49:56 10° NW 21:53:48 65° SW 21:54:09 60° SSW
Cosmos 2061 Rocket 4.1 21:49:28 10° S 21:55:52 81° W 22:02:20 10° N
Cosmos 494 Rocket 3.8 21:52:44 10° NNW 21:57:52 72° ENE 21:59:02 52° SE
Cosmos 2369 Rocket 3.6 22:01:46 22° NE 22:01:46 22° NE 22:03:54 10° NE
Cosmos 1459 Rocket 4.3 21:54:21 10° SSW 22:00:34 68° W 22:06:43 10° N
Helios 1A 4.4 22:02:55 14° SSW 22:06:01 36° W 22:09:54 10° NNW
Gblst 52 Del rocket 4.1 22:00:43 10° SW 22:06:37 64° SE 22:07:37 54° E
Cosmos 2173 Rocket 4.5 22:02:48 10° SSW 22:08:53 60° W 22:15:07 10° N
Cosmos 1184 Rocket 3.7 22:05:36 10° NNW 22:08:25 49° WNW 22:08:25 49° WNW
USA 267 4.4 22:06:11 22° ENE 22:09:03 31° NNE 22:14:39 10° NW
Cosmos 2233 Rocket 4.4 22:10:13 41° ENE 22:10:13 41° ENE 22:15:18 10° NNE
Envisat 3.5 22:08:43 26° S 22:11:28 59° W 22:16:29 10° NNW
Cosmos 1833 Rocket 4.2 22:07:02 10° NW 22:11:59 32° WSW 22:16:33 12° SSW
Cosmos 1864 Rocket 4.4 22:11:34 31° S 22:14:50 77° E 22:21:09 10° N
NOAA 11 4.3 22:19:29 57° ENE 22:19:29 57° ENE 22:24:44 10° N
ERS-1 Rocket 2.9 22:23:15 76° SSW 22:23:38 84° WSW 22:28:42 10° NNW
ATLAS 5 CENTAUR R/B 3.7 22:21:02 10° WSW 22:25:14 30° NW 22:29:47 10° NNE
H-2A R/B 3.4 22:31:00 28° NE 22:31:00 28° NE 22:34:09 10° N
Cosmos 1356 Rocket 4.4 22:26:48 10° NNW 22:30:27 44° W 22:30:27 44° W
CZ-3 Stage 3 3.7 22:13:49 10° W 22:36:13 41° SSW 22:37:49 37° S
Cosmos 2221 4.5 22:45:55 23° N 22:45:55 23° N 22:47:36 10° N
ISS -0.6 22:44:34 10° WNW 22:45:26 15° WNW 22:45:26 15° WNW
MetOp-A 4.3 22:49:16 68° NW 22:49:16 68° NW 22:54:04 10° NNW
Cosmos 1725 Rocket 4.5 22:47:24 27° SSW 22:50:48 56° W 22:56:54 10° N
ARGOS 3.7 22:55:16 54° N 22:55:16 54° N 22:59:22 10° NNW
MOS 1-B Rocket 4.4 23:01:32 75° ENE 23:01:32 75° ENE 23:08:27 10° N
USA 215 3.6 23:12:58 10° NE 23:19:22 59° NW 23:25:44 10° WSW
SPOT 5 4.3 23:22:09 38° WNW 23:22:09 38° WNW 23:25:54 10° NNW
Terra 4.2 23:31:05 18° N 23:31:05 18° N 23:32:22 10° N
Cosmos 2369 Rocket 3.8 23:43:24 31° NW 23:43:24 31° NW 23:47:48 10° N
USA 267 4.0 23:53:31 47° NW 23:53:31 47° NW 23:58:01 10° NW
